EW9240 Weather Reports


Display with metric or nautical units.
time (UTC)temp
F
wind
direction
speed
MPH
gust
MPH
rain 1hr
in
rain 24hr
in
rain mn
in
humidity
%
barometer
mb
20260906213019 58 200 0.0 0.0 0.00 0.51 0.51 93 1015.4
20260906211502 57 200 0.0 0.0 0.00 0.51 0.51 93 1015.4
20260906210056 57 200 0.0 0.0 0.00 0.51 0.51 94 1015.2
20260906204542 57 200 0.0 0.0 0.00 0.51 0.51 93 1015.2
20260906203025 57 136 0.0 0.0 0.00 0.51 0.51 94 1015.1
20260906201511 58 136 0.0 0.0 0.00 0.51 0.51 94 1015.1
20260906194554 57 136 0.0 0.0 0.00 0.51 0.51 94 1014.9
20260906193058 57 135 0.0 0.0 0.00 0.51 0.51 94 1014.9
20260906191535 57 130 0.0 0.0 0.01 0.51 0.51 94 1014.9
20260906190008 57 128 0.0 0.0 0.01 0.51 0.51 94 1015.0
20260906184601 56 129 0.0 0.0 0.02 0.51 0.51 94 1014.9
20260906183046 56 129 0.0 0.0 0.04 0.51 0.51 94 1014.9
20260906181541 55 129 0.0 1.0 0.06 0.50 0.50 94 1014.9
20260906180041 56 124 0.0 0.0 0.10 0.50 0.50 94 1014.7
20260906174524 55 123 0.0 0.0 0.13 0.49 0.49 94 1014.7
20260906173011 55 123 0.0 1.0 0.13 0.47 0.47 94 1014.7
20260906171524 55 122 0.0 1.0 0.13 0.44 0.44 94 1014.7
20260906170008 55 77 0.0 0.0 0.11 0.39 0.39 95 1014.7
20260906164544 55 77 0.0 0.0 0.11 0.36 0.36 94 1014.7
20260906163025 55 77 0.0 2.0 0.14 0.34 0.34 94 1014.6
20260906161511 55 133 0.0 0.0 0.14 0.31 0.31 94 1014.5
20260906160105 55 138 0.0 0.0 0.15 0.28 0.28 93 1014.4
20260906154548 55 138 0.0 0.0 0.14 0.25 0.25 93 1014.4
20260906153035 55 137 0.0 0.0 0.11 0.20 0.20 93 1014.3
20260906151519 55 139 0.0 0.0 0.11 0.17 0.17 93 1014.4
20260906150005 55 140 0.0 0.0 0.09 0.13 0.13 92 1014.1
20260906144609 55 140 0.0 0.0 0.08 0.11 0.11 92 1013.9
20260906143042 55 139 0.0 0.0 0.07 0.09 0.09 92 1013.7
20260906141533 55 140 0.0 0.0 0.05 0.06 0.06 92 1013.6
20260906140008 56 140 0.0 0.0 0.04 0.04 0.04 91 1013.4
20260906134559 56 138 0.0 0.0 0.03 0.03 0.03 91 1013.5
20260906133053 56 143 0.0 0.0 0.02 0.02 0.02 90 1013.5
20260906131534 56 207 0.0 0.0 0.00 0.00 0.00 90 1013.3
20260906130014 56 208 0.0 0.0 0.00 0.00 0.00 89 1013.1
20260906124501 57 207 0.0 0.0 0.00 0.00 0.00 89 1013.2
20260906123049 57 207 0.0 0.0 0.00 0.00 0.00 89 1013.2
20260906121533 57 207 0.0 0.0 0.00 0.00 0.00 88 1013.2
20260906120018 57 207 0.0 0.0 0.00 0.00 0.00 88 1013.3
20260906114513 57 210 0.0 0.0 0.00 0.00 0.00 87 1013.3
20260906113052 58 210 0.0 0.0 0.00 0.00 0.00 87 1013.2
20260906111541 57 210 0.0 0.0 0.00 0.00 0.00 88 1013.3
20260906110036 57 210 0.0 0.0 0.00 0.00 0.00 87 1013.2
20260906104524 57 210 0.0 0.0 0.00 0.00 0.00 87 1013.2
20260906103105 57 124 0.0 0.0 0.00 0.00 0.00 87 1013.1
20260906101551 57 125 0.0 0.0 0.00 0.00 0.00 87 1013.2
20260906100012 58 125 0.0 1.0 0.00 0.00 0.00 86 1013.2
20260906094615 58 124 0.0 1.0 0.00 0.00 0.00 86 1013.2
20260906093117 58 124 0.0 0.0 0.00 0.00 0.00 86 1013.2
20260906091508 58 125 0.0 0.0 0.00 0.00 0.00 86 1013.1
20260906084546 58 124 0.0 0.0 0.00 0.00 0.00 85 1013.1
20260906083044 58 136 0.0 0.0 0.00 0.00 0.00 86 1013.2
20260906081517 58 137 0.0 0.0 0.00 0.00 0.00 86 1013.1
20260906080006 58 137 0.0 0.0 0.00 0.00 0.00 86 1013.1
20260906074556 59 137 0.0 0.0 0.00 0.00 0.00 85 1013.1
20260906073035 59 137 0.0 0.0 0.00 0.00 0.00 85 1013.3
20260906071513 59 137 0.0 0.0 0.00 0.00 0.00 84 1013.2
20260906064551 59 137 0.0 0.0 0.00 0.00 0.00 83 1013.2
20260906063034 59 137 0.0 0.0 0.00 0.00 0.00 83 1013.2
20260906061519 59 137 0.0 0.0 0.00 0.00 0.00 82 1013.2
20260906060108 59 122 0.0 0.0 0.00 0.00 0.00 83 1013.4
20260906054602 59 122 0.0 1.0 0.00 0.00 0.00 83 1013.3
20260906053030 59 110 0.0 0.0 0.00 0.00 0.00 83 1013.4
20260906051517 59 360 0.0 0.0 0.00 0.00 0.00 81 1013.5
20260906050005 59 356 0.0 1.0 0.00 0.00 0.00 82 1013.5
20260906044602 60 338 0.0 0.0 0.00 0.00 0.00 81 1013.5
20260906043035 60 338 0.0 0.0 0.00 0.00 0.00 80 1013.6
20260906041520 61 338 0.0 0.0 0.00 0.00 0.00 79 1013.6
20260906040016 61 338 0.0 0.0 0.00 0.00 0.00 78 1013.7
20260906034537 62 338 0.0 0.0 0.00 0.00 0.00 77 1013.6
20260906033037 63 338 0.0 0.0 0.00 0.00 0.00 74 1013.3
20260906031512 64 338 0.0 0.0 0.00 0.00 0.00 72 1013.2
20260906030008 65 338 0.0 0.0 0.00 0.00 0.00 69 1013.0
20260906024556 66 338 0.0 0.0 0.00 0.00 0.00 66 1013.0
20260906023034 68 338 0.0 1.0 0.00 0.00 0.00 64 1013.0
20260906021520 68 23 0.0 2.0 0.00 0.00 0.00 62 1013.0
20260906020003 68 353 0.0 2.0 0.00 0.00 0.00 62 1013.2
20260906014633 69 311 0.0 2.0 0.00 0.00 0.00 60 1013.2
20260906013047 69 309 1.0 4.0 0.00 0.00 0.00 60 1013.2
20260906011528 69 52 0.0 3.0 0.00 0.00 0.00 58 1013.1
20260906010017 70 131 0.0 5.0 0.00 0.00 0.00 58 1013.1
20260906004529 70 307 0.0 3.0 0.00 0.00 0.00 55 1013.2
20260906003015 70 269 0.0 2.0 0.00 0.00 0.00 55 1013.2
20260906001505 70 302 2.0 3.0 0.00 0.00 0.00 54 1013.2
20260906000057 70 310 0.0 4.0 0.00 0.00 0.00 55 1013.2
20260905234544 70 48 1.0 5.0 0.00 0.00 0.00 54 1013.3
20260905233034 70 54 0.0 2.0 0.00 0.00 0.00 56 1013.3
20260905231520 70 326 0.0 3.0 0.00 0.00 0.00 58 1013.5
20260905230110 69 311 2.0 4.0 0.00 0.00 0.00 56 1013.6
20260905224548 70 283 1.0 4.0 0.00 0.01 0.00 57 1013.6
20260905223033 70 301 3.0 6.0 0.00 0.01 0.00 56 1013.7
20260905221512 69 295 0.0 2.0 0.00 0.01 0.00 59 1013.8
20260905220013 70 266 0.0 2.0 0.00 0.01 0.00 59 1013.9
20260905214602 70 280 0.0 3.0 0.00 0.01 0.00 58 1013.9